Time,TemperatureF,DewpointF,PressureIn,WindDirection,WindDirectionDegrees,WindSpeedMPH,WindSpeedGustMPH,Humidity,HourlyPrecipIn,Conditions,Clouds,dailyrainin,SolarRadiationWatts/m^2,SoftwareType,DateUTC
2013-03-02 00:00:00,25.3,17.3,30.35,WNW,295,2.0,-999.0,71,0.00,,,0.00,1,WeatherHawk,2013-03-02 07:00:00,
2013-03-02 00:05:00,25.5,17.4,30.35,NE,47,1.0,-999.0,71,0.00,,,0.00,0,WeatherHawk,2013-03-02 07:05:00,
2013-03-02 00:10:00,25.5,17.4,30.35,East,88,1.0,-999.0,71,0.00,,,0.00,1,WeatherHawk,2013-03-02 07:10:00,
2013-03-02 00:15:00,25.5,17.1,30.35,ENE,59,1.0,-999.0,70,0.00,,,0.00,0,WeatherHawk,2013-03-02 07:15:00,
2013-03-02 00:20:00,25.5,17.4,30.35,NW,310,2.0,-999.0,71,0.00,,,0.00,0,WeatherHawk,2013-03-02 07:20:00,
2013-03-02 00:25:00,25.7,17.6,30.35,NW,317,1.0,-999.0,71,0.00,,,0.00,0,WeatherHawk,2013-03-02 07:25:00,
2013-03-02 00:30:00,25.7,17.3,30.35,NNW,340,0.0,-999.0,70,0.00,,,0.00,0,WeatherHawk,2013-03-02 07:30:00,
2013-03-02 00:35:00,25.5,17.4,30.35,NE,44,1.0,-999.0,71,0.00,,,0.00,0,WeatherHawk,2013-03-02 07:35:00,
2013-03-02 00:40:00,25.5,17.4,30.35,NE,55,2.0,-999.0,71,0.00,,,0.00,0,WeatherHawk,2013-03-02 07:40:00,
2013-03-02 00:45:00,25.5,17.4,30.35,NNW,335,0.0,-999.0,71,0.00,,,0.00,0,WeatherHawk,2013-03-02 07:45:00,
2013-03-02 00:50:00,25.7,17.6,30.35,NNW,342,1.0,-999.0,71,0.00,,,0.00,0,WeatherHawk,2013-03-02 07:50:00,
2013-03-02 00:55:00,25.7,17.6,30.35,ENE,77,2.0,-999.0,71,0.00,,,0.00,0,WeatherHawk,2013-03-02 07:55:00,
2013-03-02 01:00:00,25.3,17.3,30.35,NNE,32,1.0,-999.0,71,0.00,,,0.00,0,WeatherHawk,2013-03-02 08:00:00,
2013-03-02 01:05:00,25.5,17.8,30.35,NNE,30,2.0,-999.0,72,0.00,,,0.00,1,WeatherHawk,2013-03-02 08:05:00,
2013-03-02 01:15:00,25.3,17.6,30.35,ENE,65,1.0,-999.0,72,0.00,,,0.00,0,WeatherHawk,2013-03-02 08:15:00,
2013-03-02 01:20:00,25.3,17.6,30.35,East,79,1.0,-999.0,72,0.00,,,0.00,0,WeatherHawk,2013-03-02 08:20:00,
2013-03-02 01:25:00,25.3,17.6,30.35,NNE,29,1.0,-999.0,72,0.00,,,0.00,1,WeatherHawk,2013-03-02 08:25:00,
2013-03-02 01:29:00,25.3,17.6,30.35,ENE,78,1.0,-999.0,72,0.00,,,0.00,0,WeatherHawk,2013-03-02 08:29:00,
2013-03-02 01:34:00,25.3,17.6,30.35,NE,45,2.0,-999.0,72,0.00,,,0.00,0,WeatherHawk,2013-03-02 08:34:00,
2013-03-02 01:39:00,25.3,17.9,30.35,NE,49,0.0,-999.0,73,0.00,,,0.00,0,WeatherHawk,2013-03-02 08:39:00,
2013-03-02 01:44:00,25.3,17.9,30.35,North,351,0.0,-999.0,73,0.00,,,0.00,0,WeatherHawk,2013-03-02 08:44:00,
2013-03-02 01:49:00,25.3,17.6,30.35,ESE,118,0.0,-999.0,72,0.00,,,0.00,1,WeatherHawk,2013-03-02 08:49:00,
2013-03-02 01:54:00,25.3,17.6,30.35,ENE,78,1.0,-999.0,72,0.00,,,0.00,0,WeatherHawk,2013-03-02 08:54:00,
2013-03-02 01:59:00,25.3,17.6,30.35,NNE,33,1.0,-999.0,72,0.00,,,0.00,1,WeatherHawk,2013-03-02 08:59:00,
2013-03-02 02:04:00,25.2,17.7,30.35,NNE,16,0.0,-999.0,73,0.00,,,0.00,0,WeatherHawk,2013-03-02 09:04:00,
2013-03-02 02:09:00,25.2,17.4,30.35,ENE,63,1.0,-999.0,72,0.00,,,0.00,0,WeatherHawk,2013-03-02 09:09:00,
2013-03-02 02:14:00,25.2,17.4,30.35,North,1,1.0,-999.0,72,0.00,,,0.00,0,WeatherHawk,2013-03-02 09:14:00,
2013-03-02 02:19:00,25.2,17.7,30.35,ENE,68,1.0,-999.0,73,0.00,,,0.00,0,WeatherHawk,2013-03-02 09:19:00,
2013-03-02 02:24:00,25.0,17.6,30.35,ENE,78,1.0,-999.0,73,0.00,,,0.00,0,WeatherHawk,2013-03-02 09:24:00,
2013-03-02 02:29:00,25.0,17.9,30.35,NNE,27,1.0,-999.0,74,0.00,,,0.00,1,WeatherHawk,2013-03-02 09:29:00,
2013-03-02 02:34:00,25.0,17.9,30.35,ENE,71,1.0,-999.0,74,0.00,,,0.00,0,WeatherHawk,2013-03-02 09:34:00,
2013-03-02 02:39:00,25.0,17.9,30.34,ENE,78,0.0,-999.0,74,0.00,,,0.00,0,WeatherHawk,2013-03-02 09:39:00,
2013-03-02 02:44:00,25.0,17.9,30.34,East,94,1.0,-999.0,74,0.00,,,0.00,0,WeatherHawk,2013-03-02 09:44:00,
2013-03-02 02:49:00,24.8,17.7,30.34,ENE,76,0.0,-999.0,74,0.00,,,0.00,0,WeatherHawk,2013-03-02 09:49:00,
2013-03-02 02:54:00,24.8,17.7,30.34,ENE,70,1.0,-999.0,74,0.00,,,0.00,0,WeatherHawk,2013-03-02 09:54:00,
2013-03-02 02:59:00,24.6,17.5,30.34,NE,46,1.0,-999.0,74,0.00,,,0.00,0,WeatherHawk,2013-03-02 09:59:00,
2013-03-02 03:04:00,24.8,17.7,30.34,North,11,1.0,-999.0,74,0.00,,,0.00,0,WeatherHawk,2013-03-02 10:04:00,
2013-03-02 03:09:00,25.0,17.6,30.34,ENE,77,1.0,-999.0,73,0.00,,,0.00,0,WeatherHawk,2013-03-02 10:09:00,
2013-03-02 03:15:00,24.8,17.7,30.34,East,91,1.0,-999.0,74,0.00,,,0.00,0,WeatherHawk,2013-03-02 10:15:00,
2013-03-02 03:24:00,24.6,17.5,30.34,ENE,78,1.0,-999.0,74,0.00,,,0.00,0,WeatherHawk,2013-03-02 10:24:00,
2013-03-02 03:29:00,24.6,17.5,30.34,East,90,0.0,-999.0,74,0.00,,,0.00,0,WeatherHawk,2013-03-02 10:29:00,
2013-03-02 03:39:00,24.1,17.0,30.34,ENE,74,2.0,-999.0,74,0.00,,,0.00,0,WeatherHawk,2013-03-02 10:39:00,
2013-03-02 03:44:00,23.9,17.2,30.34,ENE,64,1.0,-999.0,75,0.00,,,0.00,0,WeatherHawk,2013-03-02 10:44:00,
2013-03-02 03:49:00,23.9,17.5,30.34,East,85,1.0,-999.0,76,0.00,,,0.00,0,WeatherHawk,2013-03-02 10:49:00,
2013-03-02 03:54:00,24.1,17.3,30.34,East,82,1.0,-999.0,75,0.00,,,0.00,0,WeatherHawk,2013-03-02 10:54:00,
2013-03-02 03:59:00,23.9,17.2,30.34,ENE,75,1.0,-999.0,75,0.00,,,0.00,0,WeatherHawk,2013-03-02 10:59:00,
2013-03-02 04:04:00,23.9,17.5,30.34,NE,49,0.0,-999.0,76,0.00,,,0.00,0,WeatherHawk,2013-03-02 11:04:00,
2013-03-02 04:09:00,23.9,17.2,30.34,NE,52,1.0,-999.0,75,0.00,,,0.00,0,WeatherHawk,2013-03-02 11:09:00,
2013-03-02 04:14:00,23.9,17.5,30.34,NE,52,1.0,-999.0,76,0.00,,,0.00,0,WeatherHawk,2013-03-02 11:14:00,
2013-03-02 04:19:00,24.1,17.6,30.34,ENE,72,2.0,-999.0,76,0.00,,,0.00,0,WeatherHawk,2013-03-02 11:19:00,
2013-03-02 04:24:00,24.1,17.6,30.34,East,96,2.0,-999.0,76,0.00,,,0.00,0,WeatherHawk,2013-03-02 11:24:00,
2013-03-02 04:29:00,24.3,17.8,30.34,NE,48,1.0,-999.0,76,0.00,,,0.00,1,WeatherHawk,2013-03-02 11:29:00,
2013-03-02 04:34:00,24.4,17.4,30.34,South,177,0.0,-999.0,74,0.00,,,0.00,0,WeatherHawk,2013-03-02 11:34:00,
2013-03-02 04:39:00,23.9,17.2,30.34,ESE,110,1.0,-999.0,75,0.00,,,0.00,0,WeatherHawk,2013-03-02 11:39:00,
2013-03-02 04:44:00,23.9,17.5,30.35,ENE,77,1.0,-999.0,76,0.00,,,0.00,0,WeatherHawk,2013-03-02 11:44:00,
2013-03-02 04:49:00,24.3,17.8,30.34,ENE,71,1.0,-999.0,76,0.00,,,0.00,0,WeatherHawk,2013-03-02 11:49:00,
2013-03-02 04:54:00,24.6,17.8,30.34,NE,52,1.0,-999.0,75,0.00,,,0.00,0,WeatherHawk,2013-03-02 11:54:00,
2013-03-02 04:59:00,24.6,17.8,30.35,ENE,63,1.0,-999.0,75,0.00,,,0.00,0,WeatherHawk,2013-03-02 11:59:00,
2013-03-02 05:04:00,24.6,17.8,30.35,ENE,74,1.0,-999.0,75,0.00,,,0.00,0,WeatherHawk,2013-03-02 12:04:00,
2013-03-02 05:09:00,24.4,17.7,30.35,NNE,29,0.0,-999.0,75,0.00,,,0.00,0,WeatherHawk,2013-03-02 12:09:00,
2013-03-02 05:14:00,24.6,17.2,30.35,SW,225,1.0,-999.0,73,0.00,,,0.00,0,WeatherHawk,2013-03-02 12:14:00,
2013-03-02 05:19:00,23.9,17.2,30.35,SE,124,1.0,-999.0,75,0.00,,,0.00,0,WeatherHawk,2013-03-02 12:19:00,
2013-03-02 05:24:00,23.9,17.2,30.35,NNW,328,0.0,-999.0,75,0.00,,,0.00,0,WeatherHawk,2013-03-02 12:24:00,
2013-03-02 05:29:00,24.1,17.3,30.35,NE,49,0.0,-999.0,75,0.00,,,0.00,0,WeatherHawk,2013-03-02 12:29:00,
2013-03-02 05:34:00,24.1,17.3,30.35,East,93,1.0,-999.0,75,0.00,,,0.00,1,WeatherHawk,2013-03-02 12:34:00,
2013-03-02 05:39:00,24.1,17.3,30.35,NNW,334,1.0,-999.0,75,0.00,,,0.00,0,WeatherHawk,2013-03-02 12:39:00,
2013-03-02 05:44:00,24.4,17.7,30.35,SW,223,2.0,-999.0,75,0.00,,,0.00,0,WeatherHawk,2013-03-02 12:44:00,
2013-03-02 05:49:00,23.5,16.8,30.35,ESE,107,2.0,-999.0,75,0.00,,,0.00,0,WeatherHawk,2013-03-02 12:49:00,
2013-03-02 05:54:00,23.2,17.1,30.35,SE,126,0.0,-999.0,77,0.00,,,0.00,1,WeatherHawk,2013-03-02 12:54:00,
2013-03-02 05:59:00,23.4,17.2,30.36,NE,51,1.0,-999.0,77,0.00,,,0.00,0,WeatherHawk,2013-03-02 12:59:00,
2013-03-02 06:04:00,23.5,17.4,30.35,ESE,110,1.0,-999.0,77,0.00,,,0.00,1,WeatherHawk,2013-03-02 13:04:00,
2013-03-02 06:09:00,23.5,17.4,30.35,ESE,115,1.0,-999.0,77,0.00,,,0.00,1,WeatherHawk,2013-03-02 13:09:00,
2013-03-02 06:14:00,23.7,17.6,30.36,ENE,70,1.0,-999.0,77,0.00,,,0.00,0,WeatherHawk,2013-03-02 13:14:00,
2013-03-02 06:19:00,23.9,17.5,30.36,NNW,341,1.0,-999.0,76,0.00,,,0.00,0,WeatherHawk,2013-03-02 13:19:00,
2013-03-02 06:24:00,23.9,17.5,30.36,West,263,0.0,-999.0,76,0.00,,,0.00,2,WeatherHawk,2013-03-02 13:24:00,
2013-03-02 06:29:00,23.9,17.2,30.36,SW,226,1.0,-999.0,75,0.00,,,0.00,0,WeatherHawk,2013-03-02 13:29:00,
2013-03-02 06:34:00,23.5,17.1,30.36,ESE,106,2.0,-999.0,76,0.00,,,0.00,1,WeatherHawk,2013-03-02 13:34:00,
2013-03-02 06:39:00,23.5,17.4,30.36,ENE,61,0.0,-999.0,77,0.00,,,0.00,1,WeatherHawk,2013-03-02 13:39:00,
2013-03-02 06:44:00,23.4,16.9,30.35,NNW,348,1.0,-999.0,76,0.00,,,0.00,4,WeatherHawk,2013-03-02 13:44:00,
2013-03-02 06:49:00,23.5,17.1,30.35,North,357,0.0,-999.0,76,0.00,,,0.00,7,WeatherHawk,2013-03-02 13:49:00,
2013-03-02 06:54:00,23.7,17.0,30.36,NNW,342,1.0,-999.0,75,0.00,,,0.00,10,WeatherHawk,2013-03-02 13:54:00,
2013-03-02 06:59:00,23.7,17.0,30.36,SSE,147,1.0,-999.0,75,0.00,,,0.00,17,WeatherHawk,2013-03-02 13:59:00,
2013-03-02 07:04:00,23.5,17.1,30.35,South,177,0.0,-999.0,76,0.00,,,0.00,18,WeatherHawk,2013-03-02 14:04:00,
2013-03-02 07:09:00,23.7,17.3,30.36,ENE,64,0.0,-999.0,76,0.00,,,0.00,18,WeatherHawk,2013-03-02 14:09:00,
2013-03-02 07:14:00,23.9,17.2,30.36,ESE,115,1.0,-999.0,75,0.00,,,0.00,14,WeatherHawk,2013-03-02 14:14:00,
2013-03-02 07:19:00,24.1,17.3,30.36,ESE,113,1.0,-999.0,75,0.00,,,0.00,20,WeatherHawk,2013-03-02 14:19:00,
2013-03-02 07:24:00,24.1,17.3,30.36,SE,141,0.0,-999.0,75,0.00,,,0.00,26,WeatherHawk,2013-03-02 14:24:00,
2013-03-02 07:29:00,24.3,17.5,30.36,SSE,151,1.0,-999.0,75,0.00,,,0.00,28,WeatherHawk,2013-03-02 14:29:00,
2013-03-02 07:34:00,24.4,17.7,30.36,South,189,0.0,-999.0,75,0.00,,,0.00,33,WeatherHawk,2013-03-02 14:34:00,
2013-03-02 07:39:00,24.6,17.5,30.36,SSW,212,1.0,-999.0,74,0.00,,,0.00,40,WeatherHawk,2013-03-02 14:39:00,
2013-03-02 07:44:00,24.6,17.5,30.36,SW,233,1.0,-999.0,74,0.00,,,0.00,53,WeatherHawk,2013-03-02 14:44:00,
2013-03-02 07:49:00,24.8,17.4,30.36,SE,133,0.0,-999.0,73,0.00,,,0.00,49,WeatherHawk,2013-03-02 14:49:00,
2013-03-02 07:54:00,25.2,17.7,30.36,ESE,115,1.0,-999.0,73,0.00,,,0.00,68,WeatherHawk,2013-03-02 14:54:00,
2013-03-02 07:59:00,25.5,17.8,30.36,SW,233,1.0,-999.0,72,0.00,,,0.00,62,WeatherHawk,2013-03-02 14:59:00,
2013-03-02 08:04:00,26.1,18.0,30.36,SW,223,2.0,-999.0,71,0.00,,,0.00,83,WeatherHawk,2013-03-02 15:04:00,
2013-03-02 08:09:00,26.1,18.3,30.36,WSW,241,0.0,-999.0,72,0.00,,,0.00,79,WeatherHawk,2013-03-02 15:09:00,
2013-03-02 08:14:00,26.1,18.3,30.36,NW,309,1.0,-999.0,72,0.00,,,0.00,92,WeatherHawk,2013-03-02 15:14:00,
2013-03-02 08:19:00,26.2,18.1,30.36,WSW,239,1.0,-999.0,71,0.00,,,0.00,97,WeatherHawk,2013-03-02 15:19:00,
2013-03-02 08:24:00,26.6,18.5,30.37,WNW,298,2.0,-999.0,71,0.00,,,0.00,107,WeatherHawk,2013-03-02 15:24:00,
2013-03-02 08:29:00,27.0,18.5,30.37,ENE,76,1.0,-999.0,70,0.00,,,0.00,104,WeatherHawk,2013-03-02 15:29:00,
2013-03-02 08:34:00,26.8,18.3,30.37,East,84,1.0,-999.0,70,0.00,,,0.00,119,WeatherHawk,2013-03-02 15:34:00,
2013-03-02 08:39:00,27.1,18.3,30.37,NNW,342,0.0,-999.0,69,0.00,,,0.00,122,WeatherHawk,2013-03-02 15:39:00,
2013-03-02 08:44:00,27.7,18.2,30.36,SSE,158,1.0,-999.0,67,0.00,,,0.00,145,WeatherHawk,2013-03-02 15:44:00,
2013-03-02 08:49:00,27.5,18.0,30.36,ESE,112,2.0,-999.0,67,0.00,,,0.00,165,WeatherHawk,2013-03-02 15:49:00,
2013-03-02 08:54:00,27.5,18.0,30.36,East,94,1.0,-999.0,67,0.00,,,0.00,193,WeatherHawk,2013-03-02 15:54:00,
2013-03-02 08:59:00,28.8,18.5,30.36,West,265,2.0,-999.0,65,0.00,,,0.00,190,WeatherHawk,2013-03-02 15:59:00,
2013-03-02 09:04:00,28.6,18.0,30.36,South,188,1.0,-999.0,64,0.00,,,0.00,222,WeatherHawk,2013-03-02 16:04:00,
2013-03-02 09:10:00,29.1,18.8,30.36,SSW,192,2.0,-999.0,65,0.00,,,0.00,301,WeatherHawk,2013-03-02 16:10:00,
2013-03-02 09:14:00,28.9,17.9,30.36,South,190,2.0,-999.0,63,0.00,,,0.00,224,WeatherHawk,2013-03-02 16:14:00,
2013-03-02 09:19:00,28.8,17.8,30.36,SSE,157,2.0,-999.0,63,0.00,,,0.00,204,WeatherHawk,2013-03-02 16:19:00,
2013-03-02 09:24:00,28.9,17.9,30.36,SSE,163,1.0,-999.0,63,0.00,,,0.00,237,WeatherHawk,2013-03-02 16:24:00,
2013-03-02 09:30:00,29.7,18.3,30.36,NE,44,1.0,-999.0,62,0.00,,,0.00,223,WeatherHawk,2013-03-02 16:30:00,
2013-03-02 09:34:00,30.4,18.6,30.36,West,268,1.0,-999.0,61,0.00,,,0.00,486,WeatherHawk,2013-03-02 16:34:00,
2013-03-02 09:39:00,32.5,19.4,30.36,NW,325,1.0,-999.0,58,0.00,,,0.00,476,WeatherHawk,2013-03-02 16:39:00,
2013-03-02 09:44:00,32.2,17.4,30.36,NNW,330,1.0,-999.0,54,0.00,,,0.00,457,WeatherHawk,2013-03-02 16:44:00,
2013-03-02 09:50:00,32.4,17.6,30.35,SW,217,2.0,-999.0,54,0.00,,,0.00,450,WeatherHawk,2013-03-02 16:50:00,
2013-03-02 09:55:00,33.4,16.8,30.35,WNW,296,2.0,-999.0,50,0.00,,,0.00,464,WeatherHawk,2013-03-02 16:55:00,
2013-03-02 09:59:00,33.1,17.4,30.35,SSW,198,1.0,-999.0,52,0.00,,,0.00,527,WeatherHawk,2013-03-02 16:59:00,
2013-03-02 10:04:00,33.8,16.7,30.35,South,183,2.0,-999.0,49,0.00,,,0.00,446,WeatherHawk,2013-03-02 17:04:00,
2013-03-02 10:10:00,32.9,16.3,30.35,SSW,210,2.0,-999.0,50,0.00,,,0.00,510,WeatherHawk,2013-03-02 17:10:00,
2013-03-02 10:14:00,34.0,16.4,30.35,North,1,2.0,-999.0,48,0.00,,,0.00,504,WeatherHawk,2013-03-02 17:14:00,
2013-03-02 10:19:00,34.0,16.4,30.35,NNW,347,3.0,-999.0,48,0.00,,,0.00,565,WeatherHawk,2013-03-02 17:19:00,
2013-03-02 10:25:00,33.3,16.2,30.34,West,267,2.0,-999.0,49,0.00,,,0.00,551,WeatherHawk,2013-03-02 17:25:00,
2013-03-02 10:29:00,34.2,16.5,30.34,South,172,1.0,-999.0,48,0.00,,,0.00,501,WeatherHawk,2013-03-02 17:29:00,
2013-03-02 10:34:00,34.9,17.2,30.34,WNW,286,0.0,-999.0,48,0.00,,,0.00,544,WeatherHawk,2013-03-02 17:34:00,
2013-03-02 10:39:00,35.2,16.0,30.35,NNW,334,3.0,-999.0,45,0.00,,,0.00,605,WeatherHawk,2013-03-02 17:39:00,
2013-03-02 10:45:00,34.5,15.9,30.34,NW,318,2.0,-999.0,46,0.00,,,0.00,444,WeatherHawk,2013-03-02 17:45:00,
2013-03-02 10:49:00,34.3,16.2,30.34,NW,315,2.0,-999.0,47,0.00,,,0.00,536,WeatherHawk,2013-03-02 17:49:00,
2013-03-02 10:55:00,34.3,16.2,30.34,SW,223,2.0,-999.0,47,0.00,,,0.00,504,WeatherHawk,2013-03-02 17:55:00,
2013-03-02 10:59:00,35.1,16.4,30.34,WNW,295,2.0,-999.0,46,0.00,,,0.00,508,WeatherHawk,2013-03-02 17:59:00,
2013-03-02 11:05:00,34.9,16.2,30.34,NW,314,5.0,-999.0,46,0.00,,,0.00,513,WeatherHawk,2013-03-02 18:05:00,
2013-03-02 11:09:00,34.9,16.2,30.34,NW,313,4.0,-999.0,46,0.00,,,0.00,529,WeatherHawk,2013-03-02 18:09:00,
2013-03-02 11:14:00,34.9,16.2,30.34,NW,308,3.0,-999.0,46,0.00,,,0.00,513,WeatherHawk,2013-03-02 18:14:00,
2013-03-02 11:19:00,35.2,17.1,30.34,WSW,241,1.0,-999.0,47,0.00,,,0.00,560,WeatherHawk,2013-03-02 18:19:00,
2013-03-02 11:25:00,36.3,17.5,30.34,WNW,284,1.0,-999.0,46,0.00,,,0.00,566,WeatherHawk,2013-03-02 18:25:00,
2013-03-02 11:29:00,38.1,17.1,30.34,WNW,303,5.0,-999.0,42,0.00,,,0.00,569,WeatherHawk,2013-03-02 18:29:00,
2013-03-02 11:34:00,37.4,16.4,30.34,WNW,302,6.0,-999.0,42,0.00,,,0.00,570,WeatherHawk,2013-03-02 18:34:00,
2013-03-02 11:39:00,36.1,15.8,30.33,NNW,332,0.0,-999.0,43,0.00,,,0.00,574,WeatherHawk,2013-03-02 18:39:00,
2013-03-02 11:44:00,36.5,16.2,30.33,West,269,3.0,-999.0,43,0.00,,,0.00,571,WeatherHawk,2013-03-02 18:44:00,
2013-03-02 11:49:00,36.3,16.0,30.33,NW,317,2.0,-999.0,43,0.00,,,0.00,577,WeatherHawk,2013-03-02 18:49:00,
2013-03-02 11:55:00,36.5,16.7,30.33,WNW,288,2.0,-999.0,44,0.00,,,0.00,588,WeatherHawk,2013-03-02 18:55:00,
2013-03-02 12:00:00,36.1,15.8,30.33,NNW,334,4.0,-999.0,43,0.00,,,0.00,578,WeatherHawk,2013-03-02 19:00:00,
2013-03-02 12:04:00,36.5,16.7,30.33,NW,322,6.0,-999.0,44,0.00,,,0.00,489,WeatherHawk,2013-03-02 19:04:00,
2013-03-02 12:09:00,36.1,16.4,30.33,WNW,301,3.0,-999.0,44,0.00,,,0.00,544,WeatherHawk,2013-03-02 19:09:00,
2013-03-02 12:14:00,36.7,16.8,30.32,NW,312,6.0,-999.0,44,0.00,,,0.00,572,WeatherHawk,2013-03-02 19:14:00,
2013-03-02 12:20:00,37.0,17.2,30.32,NNW,336,5.0,-999.0,44,0.00,,,0.00,568,WeatherHawk,2013-03-02 19:20:00,
2013-03-02 12:25:00,36.9,17.0,30.32,NNW,332,3.0,-999.0,44,0.00,,,0.00,572,WeatherHawk,2013-03-02 19:25:00,
2013-03-02 12:29:00,37.6,16.6,30.32,WNW,287,5.0,-999.0,42,0.00,,,0.00,575,WeatherHawk,2013-03-02 19:29:00,
2013-03-02 12:34:00,37.6,17.1,30.32,NW,313,4.0,-999.0,43,0.00,,,0.00,575,WeatherHawk,2013-03-02 19:34:00,
2013-03-02 12:40:00,37.2,16.3,30.31,SW,234,2.0,-999.0,42,0.00,,,0.00,590,WeatherHawk,2013-03-02 19:40:00,
2013-03-02 12:44:00,37.4,16.4,30.31,NW,324,7.0,-999.0,42,0.00,,,0.00,552,WeatherHawk,2013-03-02 19:44:00,
2013-03-02 12:49:00,37.2,16.8,30.31,WNW,285,2.0,-999.0,43,0.00,,,0.00,559,WeatherHawk,2013-03-02 19:49:00,
2013-03-02 12:55:00,37.8,17.3,30.31,NW,316,2.0,-999.0,43,0.00,,,0.00,556,WeatherHawk,2013-03-02 19:55:00,
2013-03-02 12:59:00,38.1,17.1,30.31,WNW,295,6.0,-999.0,42,0.00,,,0.00,568,WeatherHawk,2013-03-02 19:59:00,
2013-03-02 13:04:00,38.3,17.2,30.31,WNW,287,3.0,-999.0,42,0.00,,,0.00,567,WeatherHawk,2013-03-02 20:04:00,
2013-03-02 13:10:00,38.8,18.3,30.31,West,259,2.0,-999.0,43,0.00,,,0.00,558,WeatherHawk,2013-03-02 20:10:00,
2013-03-02 13:15:00,38.3,17.8,30.31,West,259,2.0,-999.0,43,0.00,,,0.00,562,WeatherHawk,2013-03-02 20:15:00,
2013-03-02 13:19:00,38.1,18.2,30.30,NNW,336,2.0,-999.0,44,0.00,,,0.00,484,WeatherHawk,2013-03-02 20:19:00,
2013-03-02 13:25:00,39.0,17.9,30.30,NNW,332,4.0,-999.0,42,0.00,,,0.00,459,WeatherHawk,2013-03-02 20:25:00,
2013-03-02 13:29:00,38.7,17.6,30.30,WNW,287,2.0,-999.0,42,0.00,,,0.00,518,WeatherHawk,2013-03-02 20:29:00,
2013-03-02 13:35:00,38.5,18.0,30.30,NW,309,2.0,-999.0,43,0.00,,,0.00,518,WeatherHawk,2013-03-02 20:35:00,
2013-03-02 13:39:00,39.6,18.4,30.30,NNW,344,2.0,-999.0,42,0.00,,,0.00,514,WeatherHawk,2013-03-02 20:39:00,
2013-03-02 13:45:00,40.3,19.0,30.30,NNW,327,2.0,-999.0,42,0.00,,,0.00,508,WeatherHawk,2013-03-02 20:45:00,
2013-03-02 13:49:00,40.1,18.3,30.29,WSW,252,2.0,-999.0,41,0.00,,,0.00,468,WeatherHawk,2013-03-02 20:49:00,
2013-03-02 13:55:00,41.4,19.4,30.29,WSW,238,1.0,-999.0,41,0.00,,,0.00,508,WeatherHawk,2013-03-02 20:55:00,
2013-03-02 13:59:00,40.5,17.5,30.29,NW,307,4.0,-999.0,39,0.00,,,0.00,437,WeatherHawk,2013-03-02 20:59:00,
2013-03-02 14:05:00,40.6,19.4,30.29,WSW,249,2.0,-999.0,42,0.00,,,0.00,343,WeatherHawk,2013-03-02 21:05:00,
2013-03-02 14:10:00,41.4,19.4,30.29,WNW,298,1.0,-999.0,41,0.00,,,0.00,391,WeatherHawk,2013-03-02 21:10:00,
2013-03-02 14:15:00,40.3,17.3,30.29,NE,44,2.0,-999.0,39,0.00,,,0.00,466,WeatherHawk,2013-03-02 21:15:00,
2013-03-02 14:20:00,40.8,17.8,30.29,SSW,192,4.0,-999.0,39,0.00,,,0.00,452,WeatherHawk,2013-03-02 21:20:00,
2013-03-02 14:25:00,40.5,17.5,30.29,South,177,2.0,-999.0,39,0.00,,,0.00,418,WeatherHawk,2013-03-02 21:25:00,
2013-03-02 14:30:00,41.2,18.1,30.28,West,266,3.0,-999.0,39,0.00,,,0.00,341,WeatherHawk,2013-03-02 21:30:00,
2013-03-02 14:35:00,40.8,19.0,30.28,NW,315,2.0,-999.0,41,0.00,,,0.00,351,WeatherHawk,2013-03-02 21:35:00,
2013-03-02 14:40:00,40.5,17.5,30.29,West,270,3.0,-999.0,39,0.00,,,0.00,412,WeatherHawk,2013-03-02 21:40:00,
2013-03-02 14:45:00,40.1,18.3,30.28,WNW,288,1.0,-999.0,41,0.00,,,0.00,401,WeatherHawk,2013-03-02 21:45:00,
2013-03-02 14:50:00,40.6,18.2,30.28,NNW,332,2.0,-999.0,40,0.00,,,0.00,394,WeatherHawk,2013-03-02 21:50:00,
2013-03-02 14:55:00,40.5,18.1,30.28,West,278,5.0,-999.0,40,0.00,,,0.00,380,WeatherHawk,2013-03-02 21:55:00,
2013-03-02 15:00:00,39.9,17.6,30.28,NW,325,5.0,-999.0,40,0.00,,,0.00,367,WeatherHawk,2013-03-02 22:00:00,
2013-03-02 15:05:00,40.6,19.4,30.28,NW,307,2.0,-999.0,42,0.00,,,0.00,285,WeatherHawk,2013-03-02 22:05:00,
2013-03-02 15:10:00,40.1,18.3,30.28,WNW,288,3.0,-999.0,41,0.00,,,0.00,304,WeatherHawk,2013-03-02 22:10:00,
2013-03-02 15:15:00,39.9,18.1,30.28,NW,310,1.0,-999.0,41,0.00,,,0.00,300,WeatherHawk,2013-03-02 22:15:00,
2013-03-02 15:20:00,40.6,18.2,30.28,WSW,255,1.0,-999.0,40,0.00,,,0.00,209,WeatherHawk,2013-03-02 22:20:00,
2013-03-02 15:25:00,40.8,18.4,30.28,West,263,4.0,-999.0,40,0.00,,,0.00,260,WeatherHawk,2013-03-02 22:25:00,
2013-03-02 15:30:00,41.0,18.5,30.28,SW,214,4.0,-999.0,40,0.00,,,0.00,285,WeatherHawk,2013-03-02 22:30:00,
2013-03-02 15:35:00,41.5,19.6,30.28,West,279,3.0,-999.0,41,0.00,,,0.00,305,WeatherHawk,2013-03-02 22:35:00,
2013-03-02 15:40:00,41.2,18.1,30.28,WSW,254,2.0,-999.0,39,0.00,,,0.00,258,WeatherHawk,2013-03-02 22:40:00,
2013-03-02 15:45:00,41.0,18.0,30.28,SSW,212,1.0,-999.0,39,0.00,,,0.00,288,WeatherHawk,2013-03-02 22:45:00,
2013-03-02 15:50:00,40.6,17.6,30.27,WSW,243,2.0,-999.0,39,0.00,,,0.00,228,WeatherHawk,2013-03-02 22:50:00,
2013-03-02 15:55:00,41.0,18.0,30.27,ESE,112,1.0,-999.0,39,0.00,,,0.00,169,WeatherHawk,2013-03-02 22:55:00,
2013-03-02 16:00:00,41.7,19.2,30.27,NNW,334,2.0,-999.0,40,0.00,,,0.00,154,WeatherHawk,2013-03-02 23:00:00,
2013-03-02 16:05:00,41.4,18.9,30.27,North,5,2.0,-999.0,40,0.00,,,0.00,141,WeatherHawk,2013-03-02 23:05:00,
2013-03-02 16:10:00,41.2,19.3,30.27,NNW,344,1.0,-999.0,41,0.00,,,0.00,133,WeatherHawk,2013-03-02 23:10:00,
2013-03-02 16:15:00,40.5,18.6,30.27,East,95,0.0,-999.0,41,0.00,,,0.00,111,WeatherHawk,2013-03-02 23:15:00,
2013-03-02 16:20:00,39.9,18.1,30.27,SSE,150,1.0,-999.0,41,0.00,,,0.00,110,WeatherHawk,2013-03-02 23:20:00,
2013-03-02 16:25:00,39.2,19.7,30.27,ESE,105,1.0,-999.0,45,0.00,,,0.00,112,WeatherHawk,2013-03-02 23:25:00,
2013-03-02 16:30:00,39.0,20.5,30.27,West,268,1.0,-999.0,47,0.00,,,0.00,113,WeatherHawk,2013-03-02 23:30:00,
2013-03-02 16:34:00,38.7,19.7,30.26,West,276,1.0,-999.0,46,0.00,,,0.00,133,WeatherHawk,2013-03-02 23:34:00,
2013-03-02 16:39:00,38.7,19.2,30.26,West,269,2.0,-999.0,45,0.00,,,0.00,129,WeatherHawk,2013-03-02 23:39:00,
2013-03-02 16:44:00,38.7,19.7,30.26,WNW,298,1.0,-999.0,46,0.00,,,0.00,131,WeatherHawk,2013-03-02 23:44:00,
2013-03-02 16:49:00,38.8,20.4,30.26,South,172,2.0,-999.0,47,0.00,,,0.00,192,WeatherHawk,2013-03-02 23:49:00,
2013-03-02 16:54:00,39.2,19.1,30.26,SW,225,1.0,-999.0,44,0.00,,,0.00,175,WeatherHawk,2013-03-02 23:54:00,
2013-03-02 16:59:00,39.7,19.1,30.26,South,190,2.0,-999.0,43,0.00,,,0.00,149,WeatherHawk,2013-03-02 23:59:00,
2013-03-02 17:04:00,39.9,19.8,30.26,SSW,201,1.0,-999.0,44,0.00,,,0.00,120,WeatherHawk,2013-03-03 00:04:00,
2013-03-02 17:09:00,39.7,18.5,30.26,ENE,78,1.0,-999.0,42,0.00,,,0.00,93,WeatherHawk,2013-03-03 00:09:00,
2013-03-02 17:14:00,39.6,17.8,30.26,East,95,0.0,-999.0,41,0.00,,,0.00,46,WeatherHawk,2013-03-03 00:14:00,
2013-03-02 17:19:00,39.6,17.8,30.26,NNE,18,0.0,-999.0,41,0.00,,,0.00,43,WeatherHawk,2013-03-03 00:19:00,
2013-03-02 17:24:00,39.2,16.9,30.26,North,357,1.0,-999.0,40,0.00,,,0.00,37,WeatherHawk,2013-03-03 00:24:00,
2013-03-02 17:29:00,38.7,18.6,30.26,WNW,291,1.0,-999.0,44,0.00,,,0.00,26,WeatherHawk,2013-03-03 00:29:00,
2013-03-02 17:34:00,38.5,18.0,30.26,NW,304,2.0,-999.0,43,0.00,,,0.00,26,WeatherHawk,2013-03-03 00:34:00,
2013-03-02 17:39:00,37.9,18.5,30.26,NNW,338,2.0,-999.0,45,0.00,,,0.00,21,WeatherHawk,2013-03-03 00:39:00,
2013-03-02 17:44:00,37.2,19.4,30.26,North,354,1.0,-999.0,48,0.00,,,0.00,12,WeatherHawk,2013-03-03 00:44:00,
2013-03-02 17:49:00,36.7,19.3,30.26,NNW,337,0.0,-999.0,49,0.00,,,0.00,6,WeatherHawk,2013-03-03 00:49:00,
2013-03-02 17:54:00,35.8,19.0,30.26,NNE,30,0.0,-999.0,50,0.00,,,0.00,3,WeatherHawk,2013-03-03 00:54:00,
2013-03-02 17:59:00,35.1,19.7,30.26,NE,39,1.0,-999.0,53,0.00,,,0.00,1,WeatherHawk,2013-03-03 00:59:00,
2013-03-02 18:04:00,34.3,19.0,30.26,NE,53,1.0,-999.0,53,0.00,,,0.00,1,WeatherHawk,2013-03-03 01:04:00,
2013-03-02 18:09:00,34.2,18.8,30.25,East,86,2.0,-999.0,53,0.00,,,0.00,0,WeatherHawk,2013-03-03 01:09:00,
2013-03-02 18:14:00,33.6,18.3,30.25,East,91,2.0,-999.0,53,0.00,,,0.00,1,WeatherHawk,2013-03-03 01:14:00,
2013-03-02 18:19:00,33.8,18.9,30.26,ENE,69,1.0,-999.0,54,0.00,,,0.00,0,WeatherHawk,2013-03-03 01:19:00,
2013-03-02 18:24:00,33.4,18.6,30.26,ESE,106,2.0,-999.0,54,0.00,,,0.00,0,WeatherHawk,2013-03-03 01:24:00,
2013-03-02 18:29:00,33.3,18.9,30.26,NE,51,1.0,-999.0,55,0.00,,,0.00,0,WeatherHawk,2013-03-03 01:29:00,
2013-03-02 18:34:00,33.1,18.7,30.26,NE,54,1.0,-999.0,55,0.00,,,0.00,0,WeatherHawk,2013-03-03 01:34:00,
2013-03-02 18:39:00,32.7,18.8,30.25,East,82,2.0,-999.0,56,0.00,,,0.00,0,WeatherHawk,2013-03-03 01:39:00,
2013-03-02 18:44:00,32.5,18.6,30.25,East,83,2.0,-999.0,56,0.00,,,0.00,0,WeatherHawk,2013-03-03 01:44:00,
2013-03-02 18:49:00,32.4,18.4,30.25,ENE,74,2.0,-999.0,56,0.00,,,0.00,0,WeatherHawk,2013-03-03 01:49:00,
2013-03-02 18:54:00,32.0,18.9,30.25,East,83,1.0,-999.0,58,0.00,,,0.00,0,WeatherHawk,2013-03-03 01:54:00,
2013-03-02 18:59:00,32.0,19.7,30.25,East,81,1.0,-999.0,60,0.00,,,0.00,0,WeatherHawk,2013-03-03 01:59:00,
2013-03-02 19:04:00,31.3,19.0,30.26,ESE,110,1.0,-999.0,60,0.00,,,0.00,1,WeatherHawk,2013-03-03 02:04:00,
2013-03-02 19:09:00,30.6,19.1,30.25,SSE,163,0.0,-999.0,62,0.00,,,0.00,0,WeatherHawk,2013-03-03 02:09:00,
2013-03-02 19:14:00,29.8,18.8,30.25,ENE,76,1.0,-999.0,63,0.00,,,0.00,0,WeatherHawk,2013-03-03 02:14:00,
2013-03-02 19:19:00,30.2,19.5,30.25,NNE,22,0.0,-999.0,64,0.00,,,0.00,0,WeatherHawk,2013-03-03 02:19:00,
2013-03-02 19:24:00,30.2,18.8,30.25,ESE,112,0.0,-999.0,62,0.00,,,0.00,0,WeatherHawk,2013-03-03 02:24:00,
2013-03-02 19:29:00,29.7,19.0,30.25,NNE,31,2.0,-999.0,64,0.00,,,0.00,1,WeatherHawk,2013-03-03 02:29:00,
2013-03-02 19:34:00,30.0,20.1,30.25,NNE,30,0.0,-999.0,66,0.00,,,0.00,0,WeatherHawk,2013-03-03 02:34:00,
2013-03-02 19:39:00,29.3,17.9,30.25,SE,132,2.0,-999.0,62,0.00,,,0.00,1,WeatherHawk,2013-03-03 02:39:00,
2013-03-02 19:44:00,28.6,18.7,30.25,North,349,0.0,-999.0,66,0.00,,,0.00,0,WeatherHawk,2013-03-03 02:44:00,
2013-03-02 19:49:00,28.8,18.5,30.25,ENE,70,1.0,-999.0,65,0.00,,,0.00,0,WeatherHawk,2013-03-03 02:49:00,
2013-03-02 19:54:00,28.9,19.0,30.25,NNW,327,1.0,-999.0,66,0.00,,,0.00,0,WeatherHawk,2013-03-03 02:54:00,
2013-03-02 19:59:00,28.8,18.5,30.25,WNW,288,2.0,-999.0,65,0.00,,,0.00,1,WeatherHawk,2013-03-03 02:59:00,
2013-03-02 20:04:00,28.6,18.3,30.24,East,79,2.0,-999.0,65,0.00,,,0.00,0,WeatherHawk,2013-03-03 03:04:00,
2013-03-02 20:09:00,28.6,18.0,30.24,WSW,249,2.0,-999.0,64,0.00,,,0.00,0,WeatherHawk,2013-03-03 03:09:00,
2013-03-02 20:14:00,28.2,18.0,30.24,SSE,151,0.0,-999.0,65,0.00,,,0.00,0,WeatherHawk,2013-03-03 03:14:00,
2013-03-02 20:19:00,27.7,18.2,30.24,ESE,107,1.0,-999.0,67,0.00,,,0.00,0,WeatherHawk,2013-03-03 03:19:00,
2013-03-02 20:24:00,28.4,18.2,30.23,ENE,70,1.0,-999.0,65,0.00,,,0.00,0,WeatherHawk,2013-03-03 03:24:00,
2013-03-02 20:29:00,28.4,18.2,30.24,WNW,291,1.0,-999.0,65,0.00,,,0.00,0,WeatherHawk,2013-03-03 03:29:00,
2013-03-02 20:34:00,27.3,17.1,30.24,West,265,2.0,-999.0,65,0.00,,,0.00,0,WeatherHawk,2013-03-03 03:34:00,
2013-03-02 20:39:00,27.1,17.3,30.24,NE,39,2.0,-999.0,66,0.00,,,0.00,0,WeatherHawk,2013-03-03 03:39:00,
2013-03-02 20:44:00,27.9,17.6,30.23,ENE,62,2.0,-999.0,65,0.00,,,0.00,0,WeatherHawk,2013-03-03 03:44:00,
2013-03-02 20:49:00,28.2,18.0,30.23,WSW,246,1.0,-999.0,65,0.00,,,0.00,0,WeatherHawk,2013-03-03 03:49:00,
2013-03-02 20:54:00,27.1,17.0,30.23,ENE,68,2.0,-999.0,65,0.00,,,0.00,0,WeatherHawk,2013-03-03 03:54:00,
2013-03-02 20:59:00,26.6,16.8,30.23,ESE,112,2.0,-999.0,66,0.00,,,0.00,1,WeatherHawk,2013-03-03 03:59:00,
2013-03-02 21:04:00,26.4,17.0,30.23,ENE,70,2.0,-999.0,67,0.00,,,0.00,0,WeatherHawk,2013-03-03 04:04:00,
2013-03-02 21:09:00,26.8,17.3,30.23,NE,48,1.0,-999.0,67,0.00,,,0.00,0,WeatherHawk,2013-03-03 04:09:00,
2013-03-02 21:14:00,26.6,17.1,30.23,East,88,2.0,-999.0,67,0.00,,,0.00,0,WeatherHawk,2013-03-03 04:14:00,
2013-03-02 21:19:00,26.6,16.8,30.23,ENE,76,1.0,-999.0,66,0.00,,,0.00,0,WeatherHawk,2013-03-03 04:19:00,
2013-03-02 21:24:00,26.4,16.6,30.23,NE,55,3.0,-999.0,66,0.00,,,0.00,1,WeatherHawk,2013-03-03 04:24:00,
2013-03-02 21:29:00,26.6,17.1,30.23,WNW,288,3.0,-999.0,67,0.00,,,0.00,0,WeatherHawk,2013-03-03 04:29:00,
2013-03-02 21:34:00,26.1,16.3,30.23,ENE,74,2.0,-999.0,66,0.00,,,0.00,0,WeatherHawk,2013-03-03 04:34:00,
2013-03-02 21:39:00,26.2,16.5,30.22,ESE,110,2.0,-999.0,66,0.00,,,0.00,0,WeatherHawk,2013-03-03 04:39:00,
2013-03-02 21:44:00,25.9,16.1,30.22,ESE,108,2.0,-999.0,66,0.00,,,0.00,0,WeatherHawk,2013-03-03 04:44:00,
2013-03-02 21:49:00,25.7,15.9,30.22,SE,140,1.0,-999.0,66,0.00,,,0.00,0,WeatherHawk,2013-03-03 04:49:00,
2013-03-02 21:54:00,25.9,16.1,30.22,NNE,27,1.0,-999.0,66,0.00,,,0.00,0,WeatherHawk,2013-03-03 04:54:00,
2013-03-02 21:59:00,25.2,15.1,30.22,SW,224,1.0,-999.0,65,0.00,,,0.00,1,WeatherHawk,2013-03-03 04:59:00,
2013-03-02 22:04:00,25.0,15.3,30.21,ESE,116,2.0,-999.0,66,0.00,,,0.00,0,WeatherHawk,2013-03-03 05:04:00,
2013-03-02 22:09:00,25.2,15.8,30.21,ENE,64,2.0,-999.0,67,0.00,,,0.00,0,WeatherHawk,2013-03-03 05:09:00,
2013-03-02 22:14:00,25.5,16.1,30.21,NNW,340,2.0,-999.0,67,0.00,,,0.00,0,WeatherHawk,2013-03-03 05:14:00,
2013-03-02 22:19:00,24.8,15.4,30.21,ESE,103,3.0,-999.0,67,0.00,,,0.00,0,WeatherHawk,2013-03-03 05:19:00,
2013-03-02 22:24:00,24.8,15.8,30.20,ESE,122,1.0,-999.0,68,0.00,,,0.00,0,WeatherHawk,2013-03-03 05:24:00,
2013-03-02 22:29:00,25.2,16.1,30.20,North,10,3.0,-999.0,68,0.00,,,0.00,0,WeatherHawk,2013-03-03 05:29:00,
2013-03-02 22:34:00,25.3,16.3,30.20,SSW,213,2.0,-999.0,68,0.00,,,0.00,0,WeatherHawk,2013-03-03 05:34:00,
2013-03-02 22:39:00,25.0,15.6,30.20,North,2,2.0,-999.0,67,0.00,,,0.00,0,WeatherHawk,2013-03-03 05:39:00,
2013-03-02 22:44:00,25.2,15.8,30.20,SW,229,1.0,-999.0,67,0.00,,,0.00,2,WeatherHawk,2013-03-03 05:44:00,
2013-03-02 22:49:00,24.8,15.4,30.20,East,81,2.0,-999.0,67,0.00,,,0.00,0,WeatherHawk,2013-03-03 05:49:00,
2013-03-02 22:54:00,24.8,15.8,30.19,East,80,2.0,-999.0,68,0.00,,,0.00,0,WeatherHawk,2013-03-03 05:54:00,
2013-03-02 22:59:00,24.6,15.6,30.20,North,349,1.0,-999.0,68,0.00,,,0.00,0,WeatherHawk,2013-03-03 05:59:00,
2013-03-02 23:04:00,24.4,15.4,30.19,East,98,2.0,-999.0,68,0.00,,,0.00,0,WeatherHawk,2013-03-03 06:04:00,
2013-03-02 23:09:00,24.1,15.1,30.19,SE,124,2.0,-999.0,68,0.00,,,0.00,0,WeatherHawk,2013-03-03 06:09:00,
2013-03-02 23:14:00,23.7,15.1,30.19,North,358,1.0,-999.0,69,0.00,,,0.00,0,WeatherHawk,2013-03-03 06:14:00,
2013-03-02 23:19:00,24.1,15.1,30.18,East,87,2.0,-999.0,68,0.00,,,0.00,0,WeatherHawk,2013-03-03 06:19:00,
2013-03-02 23:24:00,24.1,15.1,30.18,NNW,342,4.0,-999.0,68,0.00,,,0.00,1,WeatherHawk,2013-03-03 06:24:00,
2013-03-02 23:29:00,23.5,14.9,30.18,ENE,58,1.0,-999.0,69,0.00,,,0.00,0,WeatherHawk,2013-03-03 06:29:00,
2013-03-02 23:34:00,23.7,15.4,30.18,SE,124,2.0,-999.0,70,0.00,,,0.00,0,WeatherHawk,2013-03-03 06:34:00,
2013-03-02 23:39:00,24.1,15.1,30.18,East,84,3.0,-999.0,68,0.00,,,0.00,0,WeatherHawk,2013-03-03 06:39:00,
2013-03-02 23:44:00,24.8,15.1,30.17,NNW,330,1.0,-999.0,66,0.00,,,0.00,0,WeatherHawk,2013-03-03 06:44:00,
2013-03-02 23:49:00,24.8,15.1,30.17,ESE,121,1.0,-999.0,66,0.00,,,0.00,1,WeatherHawk,2013-03-03 06:49:00,
2013-03-02 23:54:00,23.9,14.2,30.17,South,182,1.0,-999.0,66,0.00,,,0.00,0,WeatherHawk,2013-03-03 06:54:00,
2013-03-02 23:59:00,23.4,13.7,30.17,NE,36,3.0,-999.0,66,0.00,,,0.00,0,WeatherHawk,2013-03-03 06:59:00,